Location: Eilensen
(51.8108°N, 9.7337°E)
Time: 22:54:10
(UTC+00:00)

Cosmos 2297 Rocket - Pass Details

Date: 11 December 2025
Orbit: 839 x 841 km, 71.0° (Epoch: 10 April)

Event Time Altitude Azimuth Distance (km) Brightness Sun altitude
Rises 16:01:36 0° 329° (NNW) 3,408 5.4 -7.5°
Reaches altitude 10° 16:04:04 10° 329° (NNW) 2,469 4.7 -7.8°
Maximum altitude 16:09:45 85° 241° (WSW) 851 2.3 -8.6°
Drops below altitude 10° 16:15:23 10° 154° (SSE) 2,454 4.6 -9.4°
Sets 16:17:49 0° 154° (SSE) 3,385 5.3 -9.7°
